Regional Weather Roundup
Issued by NWS Bismarck, ND

Home | Current Version | Previous Version | Text Only | Print | Product List | Glossary On
Versions: 1 2 3 4 5 6 7 8 9 10 11 12 13 14 15 16 17 18 19 20 21 22 23 24 25 26 27 28 29 30 31 32 33 34 35 36 37 38 39 40 41 42 43 44 45 46 47 48 49 50
000
ASUS43 KBIS 281410
RWRBIS

NWR BROADCAST TEXT
NATIONAL WEATHER SERVICE BISMARCK ND
900 AM CDT THU MAY 28 2015

NOTE: "FAIR" INDICATES FEW OR NO CLOUDS BELOW 12,000 FEET WITH NO
SIGNIFICANT WEATHER AND/OR OBSTRUCTIONS TO VISIBILITY.


CITY           SKY/WX    TMP DP  RH WIND       PRES   REMARKS
WILLISTON      SUNNY     60  56  86 SW7       29.88S
MINOT          CLOUDY    60  57  89 CALM      29.84F
MINOT AFB      CLOUDY    61  61 100 S5        29.84S
BISMARCK       CLOUDY    63  58  83 SW7       29.88S
DICKINSON      MOSUNNY   58  55  90 NW6       29.88F
GARRISON         N/A     61  58  90 SW8       29.85F
HETTINGER ARPT CLOUDY    57  54  89 NW6       29.92S
JAMESTOWN      PTSUNNY   64  59  83 SE13      29.88F
BEACH          FAIR      59  59 100 W8        29.93S
CARRINGTON     FAIR      63  63 100 SE14      29.88F
CROSBY         PTSUNNY   59  59 100 NW6       29.89S
HARVEY         FAIR      64  63  94 S7        29.86F
HAZEN          FAIR      59  57  94 W6        29.88S
LINTON         FAIR      63  63 100 S10       29.89R
MANDAN         FAIR      61  59  94 W8        29.89S
OAKES            N/A     66  63  88 S13G18    29.91S
STANLEY        CLOUDY    57  57 100 NW6       29.88R FOG
WATFORD CITY   CLOUDY    54  54 100 SW8       29.87S FOG
$$

CITY           SKY/WX    TMP DP  RH WIND       PRES   REMARKS
GRAND FORKS    CLOUDY    60  58  92 SE10      29.90F
GRAND FORKS AF CLOUDY    60  57  92 E7        29.90F
DEVILS LAKE    MOSUNNY   63  55  77 SE13      29.88F
FARGO          LGT RAIN  63  59  87 SE9       29.91F FOG
CANDO          PTSUNNY   64  59  82 SE15      29.88F
CAVALIER       CLOUDY    57  55  94 NE3       29.91F
GRAFTON        CLOUDY    57  57 100 E7        29.91F
LANGDON        CLOUDY    57  55  94 E13       29.91F
ROLLA          PTSUNNY   57  57 100 SE9       29.90F
WALHALLA         N/A     54  54 100 MISG      29.92F
$$

CITY           SKY/WX    TMP DP  RH WIND       PRES   REMARKS
ABERDEEN       MOSUNNY   69  61  75 S14       29.91F
MOBRIDGE       MOSUNNY   63  59  87 S8        29.87F
BUFFALO          N/A     62  57  83 W10       29.87R
RAPID CITY     SUNNY     60  55  83 N3        29.94R
GLASGOW        PTSUNNY   57  52  83 NW9       29.92R
SIDNEY         CLOUDY    55  54  94 S6        29.89F
WOLF POINT     CLOUDY    55  53  93 W3        29.90S FOG
GLENDIVE       PTSUNNY   55  54  94 S7        29.93S
MILES CITY     SUNNY     55  54  96 W6        29.94S
BAKER          SUNNY     60  54  80 NW10      29.94S
$$

CITY           SKY/WX    TMP DP  RH WIND       PRES   REMARKS
BILLINGS       PTSUNNY   53  45  74 SW8       30.02R
GREAT FALLS    PTSUNNY   54  48  80 SW7       30.04R
REGINA         CLOUDY    59  54  82 SE7       29.92F
ESTEVAN        CLOUDY    59  57  94 NE6       29.88F FOG
$$



USA.gov is the U.S. government's official web portal to all federal, state and local government web resources and services.